Printer-friendly version

IAU Minor Planet Center

Minor Planet Center

MPEC 2008-V51 : 2008 VL14

The following Minor Planet Electronic Circular may be linked-to from your own Web pages, but must not otherwise be redistributed electronically.


Read MPEC 2008-V50 Read MPEC 2008-V52


M.P.E.C. 2008-V51                                Issued 2008 Nov. 10, 13:08 UT

     The Minor Planet Electronic Circulars contain information on unusual
         minor planets and routine data on comets.  They are published
   on behalf of Commission 20 of the International Astronomical Union by the
          Minor Planet Center, Smithsonian Astrophysical Observatory,
                          Cambridge, MA 02138, U.S.A.

             Prepared using the Tamkin Foundation Computer Network

                              MPC@CFA.HARVARD.EDU
          URL http://www.cfa.harvard.edu/iau/mpc.html  ISSN 1523-6714

                                   2008 VL14

Observations:
     K08V14L* C2008 11 09.26560 03 22 56.96 +19 39 04.5          19.8 V EV051G96
     K08V14L  C2008 11 09.27369 03 22 54.55 +19 38 56.6          20.1 V EV051G96
     K08V14L  C2008 11 09.28179 03 22 52.24 +19 38 49.4          20.1 V EV051G96
     K08V14L  C2008 11 09.28997 03 22 49.90 +19 38 41.9          20.0 V EV051G96
     K08V14L  C2008 11 09.33443 03 22 37.13 +19 38 01.1          20.0 V EV051G96
     K08V14L  C2008 11 09.34896 03 22 32.93 +19 37 47.1          19.6 V EV051G96
     K08V14L  C2008 11 09.35626 03 22 30.87 +19 37 40.8          19.4 V EV051G96
     K08V14L  C2008 11 09.37773 03 22 24.72 +19 37 20.8          19.9 V EV051G96
     K08V14L  C2008 11 09.38739 03 22 21.94 +19 37 12.0          19.8 V EV051G96
     K08V14L  C2008 11 09.39271 03 22 20.19 +19 37 03.4                 EV051H36
     K08V14L  C2008 11 09.39712 03 22 19.19 +19 37 02.6          19.9 V EV051G96
     K08V14L  C2008 11 09.39756 03 22 18.82 +19 36 58.8                 EV051H36
     K08V14L  C2008 11 09.40243 03 22 17.51 +19 36 53.6          19.5 R EV051H36
     K08V14L  C2008 11 09.40891 03 22 15.82 +19 36 51.4          20.1 V EV051G96
     K08V14L  C2008 11 09.41638 03 22 13.70 +19 36 44.3          19.9 V EV051G96
     K08V14L  C2008 11 09.42006 03 22 12.66 +19 36 40.8          20.2 V EV051G96
     K08V14L  C2008 11 09.43207 03 22 09.26 +19 36 29.5          20.1 V EV051G96
     K08V14L  C2008 11 09.43811 03 22 07.55 +19 36 24.0          20.3 V EV051G96
     K08V14L  C2008 11 09.45027 03 22 04.10 +19 36 12.6          20.1 V EV051G96

Observer details:
G96 Mt. Lemmon Survey.  Observer A. D. Grauer.  Measurers E. C. Beshore,
    A. Boattini, G. J. Garradd, A. R. Gibbs, A. D. Grauer, R. E. Hill,
    R. A. Kowalski, S. M. Larson, R. H. McNaught.  1.5-m reflector + CCD.
H36 Sandlot Observatory, Scranton.  Observer G. Hug.  0.56-m reflector + CCD.

Orbital elements:
2008 VL14                                           PHA, Earth MOID = 0.0041 AU
Epoch 2008 Oct. 21.0 TT = JDT 2454760.5                 MPC
M  21.92566              (2000.0)            P               Q
n   0.40593730     Peri.  244.25891     +0.23451097     +0.97192218
a   1.8064672      Node    39.31947     -0.88063732     +0.22080266
e   0.7604285      Incl.    1.74401     -0.41168254     +0.08132322
P   2.43           H   21.1           G   0.15
From 19 observations 2008 Nov. 9.  E-assumed.

Ephemeris:
2008 VL14                a,e,i = 1.81, 0.76, 2                   q = 0.4328
Date    TT    R. A. (2000) Decl.     Delta      r     Elong.  Phase     V
2008 11 10    03 19.60   +19 28.0    0.377    1.366   175.1     3.5    20.0
2008 11 11    03 15.29   +19 13.2    0.389    1.379   177.1     2.1    20.0
2008 11 12    03 11.25   +18 58.9    0.401    1.391   178.7     1.0    20.0
2008 11 13    03 07.45   +18 45.1    0.413    1.403   178.3     1.2    20.1
2008 11 14    03 03.88   +18 31.8    0.426    1.415   176.7     2.3    20.3
2008 11 15    03 00.54   +18 19.0    0.439    1.427   174.9     3.5    20.4
2008 11 16    02 57.41   +18 06.8    0.452    1.438   173.2     4.7    20.6
2008 11 17    02 54.47   +17 55.1    0.465    1.450   171.5     5.8    20.7
2008 11 18    02 51.71   +17 44.0    0.478    1.462   169.8     6.9    20.8
2008 11 19    02 49.13   +17 33.3    0.492    1.473   168.2     7.9    21.0
2008 11 20    02 46.72   +17 23.2    0.506    1.485   166.6     8.9    21.1
2008 11 21    02 44.46   +17 13.6    0.520    1.496   165.0     9.8    21.2
2008 11 22    02 42.34   +17 04.5    0.535    1.508   163.5    10.7    21.3
2008 11 23    02 40.37   +16 55.9    0.549    1.519   162.0    11.6    21.4
2008 11 24    02 38.54   +16 47.8    0.564    1.530   160.5    12.4    21.5
2008 11 25    02 36.82   +16 40.2    0.579    1.542   159.1    13.2    21.6
2008 11 26    02 35.23   +16 33.0    0.594    1.553   157.6    14.0    21.7
2008 11 27    02 33.75   +16 26.2    0.609    1.564   156.3    14.7    21.8
2008 11 28    02 32.38   +16 19.9    0.625    1.575   154.9    15.4    21.9
2008 11 29    02 31.12   +16 14.0    0.641    1.586   153.6    16.1    22.0
2008 11 30    02 29.95   +16 08.5    0.656    1.597   152.3    16.7    22.1

Timothy B. Spahr             (C) Copyright 2008 MPC           M.P.E.C. 2008-V51

Read MPEC 2008-V50 Read MPEC 2008-V52


Our Web policy. Index to the CBAT/MPC/ICQ pages.


Valid HTML 4.01!